Hourly Data Report for June 22, 2020

OTTAWA INTL A
ONTARIO
Current Station Operator: NAVCAN

45°19'00.000" N
75°40'00.000" W
114.90 m
6106001
71628
YOW

Download Data

Hourly Data (June 2020)
Hourly Data Report for June 22, 2020
TIME Temp Definition
°C
Dew Point Definition
°C
Rel Hum Definition
%
Wind Dir Definition
10's deg

Wind Spd Definition
km/h
Visibility Definition
km
Stn Press Definition
kPa
Hmdx Definition


Wind Chill Definition


Weather Definition


00:00 21.6 17.1 75 18 7 24.1 99.80 27   LegendNANA
01:00 21.0 17.2 79 19 8 24.1 99.82 26   Clear
02:00 19.9 17.0 83 17 9 24.1 99.83     LegendNANA
03:00 19.7 17.3 86 19 11 24.1 99.88     LegendNANA
04:00 19.5 17.0 85 20 12 24.1 99.90     Mostly Cloudy
05:00 20.4 17.8 85 21 8 24.1 99.88 26   LegendNANA
06:00 21.4 18.1 81 17 7 24.1 99.92 27   LegendNANA
07:00 23.1 18.8 77 17 5 24.1 99.92 30   Mostly Cloudy
08:00 25.4 19.4 69 18 5 24.1 99.90 32   LegendNANA
09:00 27.1 20.4 66 11 6 24.1 99.89 35   LegendNANA
10:00 28.5 19.5 58 11 7 24.1 99.86 36   Mostly Cloudy
11:00 30.1 18.9 51 18 5 24.1 99.85 37   LegendNANA
12:00 31.8 18.2 44 17 9 24.1 99.78 38   LegendNANA
13:00 32.1 17.5 41 23 7 24.1 99.71 38   Mostly Cloudy
14:00 32.4 18.6 43 19 10 24.1 99.67 39   LegendNANA
15:00 30.5 19.1 50 25 10 24.1 99.66 37   LegendNANA
16:00 25.5 17.3 60 28 28 24.1 99.77 31   Cloudy
17:00 23.4 19.9 81 33 21 24.1 99.74 31   Rain
18:00 25.3 21.0 77 4 8 24.1 99.64 34   LegendNANA
19:00 23.1 20.1 83 6 8 24.1 99.63 31   Mostly Cloudy
20:00 20.9 19.0 89 12 6 24.1 99.63 28   LegendNANA
21:00 20.0 19.1 95 13 7 24.1 99.62 27   LegendNANA
22:00 20.6 19.4 92 11 4 24.1 99.65 28   Mainly Clear
23:00 20.2 19.0 92 13 5 24.1 99.58 27   LegendNANA

Notes on Data Quality.

Legend

  • E = Estimated
  • M = Missing
  • NA = Not Available*
  • [empty] = Indicates an unobserved value
Date modified: